Weather History for KEST - October, 2014

Change the Weather History Date:

Monday, October 6, 2014

  Actual Average Record
Temperature  
Mean Temperature 50 °F 52 °F  
Max Temperature 64 °F 65 °F 89 °F (1963)
Min Temperature 35 °F 40 °F 21 °F (2012)
Degree Days  
Heating Degree Days 15 13  
Month to date heating degree days 96 74  
Since 1 July heating degree days 310 282  
Cooling Degree Days 0 0  
Month to date cooling degree days 0 4  
Year to date cooling degree days 435 591  
Moisture  
Dew Point 36 °F    
Average Humidity 63    
Maximum Humidity 92    
Minimum Humidity 34    
Precipitation  
Precipitation 0.00 in 0.09 in 1.61 in (1972)
Month to date precipitation 1.04 0.61  
Sea Level Pressure  
Sea Level Pressure 29.61 in    
Wind  
Wind Speed 11 mph (West)    
Max Wind Speed 23 mph    
Max Gust Speed 34 mph    
Visibility 10 miles    
Events      
T = Trace of Precipitation, MM = Missing Value Source: NWS Daily Summary

Daily Weather History Graph

Daily Weather History Graph

Search for Another Location

Airport or City:

Trip Planner

Search our weather history database for the weather conditions in past years. The results will help you decide how hot, cold, wet, or windy it might be!

Date:

Astronomy

Oct. 06, 2014 Rise Set
Actual Time 7:22 AM CDT 6:51 PM CDT
Civil Twilight 6:53 AM CDT 7:19 PM CDT
Nautical Twilight 6:20 AM CDT 7:52 PM CDT
Astronomical Twilight 5:47 AM CDT 8:25 PM CDT
Moon 5:50 PM CDT 5:06 AM CDT
Length of Visible Light 12h 25m
Length of Day
11h 28m
Waxing Gibbous, 96% of the Moon is Illuminated
Oct 6
Waxing Gibbous
Oct 8
Full
Oct 15
Last Quarter
Oct 23
New
Oct 30
First Quarter

Hourly Weather History & Observations

Time (CDT) Temp. Windchill Dew Point Humidity Pressure Visibility Wind Dir Wind Speed Gust Speed Precip Events Conditions
12:52 AM 39.9 °F 35.1 °F 35.1 °F 83% 29.63 in 10.0 mi West 6.9 mph - N/A   Partly Cloudy
1:52 AM 37.9 °F 32.1 °F 35.1 °F 89% 29.63 in 10.0 mi West 8.1 mph - N/A   Clear
2:52 AM 37.9 °F 32.1 °F 35.1 °F 89% 29.64 in 10.0 mi WNW 8.1 mph - N/A   Clear
3:52 AM 37.0 °F 31.0 °F 34.0 °F 89% 29.62 in 10.0 mi West 8.1 mph - N/A   Clear
4:52 AM 37.9 °F 32.1 °F 35.1 °F 89% 29.64 in 10.0 mi NW 8.1 mph - N/A   Mostly Cloudy
5:52 AM 36.0 °F 29.6 °F 34.0 °F 93% 29.63 in 10.0 mi WNW 8.1 mph - N/A   Clear
6:52 AM 36.0 °F 29.6 °F 33.1 °F 89% 29.64 in 10.0 mi WNW 8.1 mph - N/A   Clear
7:52 AM 35.1 °F 29.3 °F 34.0 °F 96% 29.65 in 9.0 mi West 6.9 mph - N/A   Clear
8:52 AM 39.9 °F 35.1 °F 35.1 °F 83% 29.66 in 10.0 mi West 6.9 mph - N/A   Clear
9:52 AM 45.0 °F 37.9 °F 34.0 °F 65% 29.66 in 10.0 mi West 16.1 mph 23.0 mph N/A   Clear
10:52 AM 48.9 °F - 34.0 °F 56% 29.65 in 10.0 mi West 13.8 mph 21.9 mph N/A   Clear
11:52 AM 54.0 °F - 37.9 °F 55% 29.62 in 10.0 mi West 13.8 mph 21.9 mph N/A   Clear
1:52 PM 61.0 °F - 37.0 °F 41% 29.57 in 10.0 mi West 18.4 mph 25.3 mph N/A   Mostly Cloudy
2:52 PM 62.1 °F - 36.0 °F 38% 29.57 in 10.0 mi WNW 16.1 mph 25.3 mph N/A   Scattered Clouds
3:52 PM 62.1 °F - 35.1 °F 37% 29.57 in 10.0 mi West 12.7 mph 23.0 mph N/A   Mostly Cloudy
4:52 PM 63.0 °F - 36.0 °F 37% 29.56 in 10.0 mi West 11.5 mph 21.9 mph N/A   Scattered Clouds
5:52 PM 62.1 °F - 34.0 °F 35% 29.56 in 10.0 mi West 15.0 mph 25.3 mph N/A   Clear
6:52 PM 57.0 °F - 36.0 °F 45% 29.56 in 10.0 mi SW 8.1 mph - N/A   Clear
7:52 PM 53.1 °F - 37.9 °F 57% 29.57 in 10.0 mi SW 6.9 mph - N/A   Clear
8:52 PM 51.1 °F - 39.9 °F 66% 29.57 in 10.0 mi SW 6.9 mph - N/A   Clear
9:52 PM 51.1 °F - 39.9 °F 66% 29.57 in 10.0 mi WSW 8.1 mph - N/A   Clear
10:52 PM 50.0 °F - 39.9 °F 68% 29.57 in 10.0 mi SW 10.4 mph - N/A   Clear
11:52 PM 50.0 °F - 39.9 °F 68% 29.58 in 10.0 mi West 9.2 mph - N/A   Clear